Temp
76 76 76 76 74 75 74 74 74 75 75 75 75 75 76 77 77 77 77 77 77 77 77 77 77 77 78 76 76 76 76 75 76 76 76 76 75 76 77 76 74 73
76 76 77 77 75 74 74 75 74 75 75 75 76 76 76 76 77 77 77 77 77 78 77 77 77 77 77 76 75 75 74 75 75 77 76 75 76 75 76 76 76 75
76 76 76 76 77 75 76 75 75 75 76 76 77 76 76 77 77 76 77 77 77 78 77 77 77 77 77 76 75 76 76 74 74 76 76 75 75 75 75 76 75 75
76 77 77 78 78 77 77 75 74 75 76 75 76 77 78 79 77 76 76 78 77 77 77 77 77 77 77 77 76 75 75 75 75 75 75 76 76 75 75 75 76 76
78 77 77 78 78 78 77 76 76 75 76 76 77 76 76 76 76 76 76 76 76 76 76 76 77 77 77 77 76 75 75 75 74 74 75 75 75 75 76 75 74 75
78 78 77 77 77 77 77 77 77 76 76 76 76 77 76 77 76 77 77 76 76 77 77 76 76 77 77 77 76 76 76 75 75 74 74 74 75 75 76 76 74 74
78 78 77 78 77 77 77 78 78 77 77 78 76 76 76 76 76 76 77 77 77 77 77 76 76 76 77 76 76 76 75 75 74 74 74 74 74 74 74 74 74 74
79 79 79 78 78 77 77 77 78 78 77 76 76 77 76 77 76 77 77 77 77 76 76 77 76 76 77 76 76 75 76 77 76 75 74 74 73 74 75 75 74 73
80 79 79 78 78 78 78 78 78 78 78 77 77 77 76 77 77 77 77 76 76 76 75 76 76 76 76 76 76 76 76 76 76 75 75 74 74 74 74 74 74 74
79 79 79 79 79 79 79 79 80 79 78 78 78 78 77 77 77 77 76 75 75 76 75 75 75 76 76 76 76 76 76 76 76 75 75 75 75 75 74 74 74 74
80 80 79 79 79 80 80 80 80 80 80 79 79 78 78 77 76 76 75 74 75 75 75 75 76 76 76 76 77 77 77 77 76 75 75 75 75 75 76 74 74 74
80 80 80 80 80 80 81 81 81 81 80 80 80 79 79 79 77 77 77 76 76 76 76 76 76 76 76 76 77 77 77 77 76 76 75 75 75 75 75 75 75 75
80 80 80 80 80 81 81 81 82 82 82 81 81 80 80 80 79 78 78 77 77 77 77 76 76 76 76 76 77 77 76 76 76 75 76 75 75 75 76 75 75 75
80 81 81 80 81 80 81 81 82 82 82 82 81 80 80 80 80 79 79 78 78 78 78 77 76 76 76 76 76 77 77 76 76 76 76 76 76 76 76 76 76 76
80 81 81 81 81 80 80 81 81 81 81 81 81 81 82 82 82 81 80 78 78 78 78 78 78 77 77 77 76 76 77 77 76 76 76 76 76 76 76 76 76 77
80 80 80 80 80 79 79 80 81 81 81 81 80 81 81 81 80 81 81 80 78 78 78 78 78 79 77 72 73 78 77 78 77 76 76 76 76 75 76 76 77 77
80 80 80 79 79 79 79 79 79 80 80 79 80 80 80 80 80 80 80 81 80 79 78 79 80 80 72 68 68 71 77 77 77 76 76 76 76 75 75 76 76 77
80 79 79 79 79 79 79 79 79 79 79 79 79 79 79 80 80 80 80 81 81 80 80 80 80 75 69 67 67 67 71 78 78 77 77 76 76 76 76 76 76 77
80 79 79 79 79 79 79 79 78 78 78 79 79 80 80 78 79 80 79 80 81 80 80 81 80 73 68 66 66 66 66 73 79 78 77 77 76 76 76 76 76 76
80 80 79 79 79 79 79 78 78 78 79 80 80 80 79 79 80 79 79 79 80 80 80 81 80 74 67 65 64 64 65 68 78 79 78 78 77 77 77 77 76 76
80 80 79 79 79 79 79 78 78 78 78 80 80 80 79 79 79 79 79 80 80 81 80 81 82 72 66 64 63 62 64 66 76 79 79 78 78 78 77 78 77 77
80 80 80 79 79 79 79 78 78 78 78 79 80 80 81 81 80 81 80 80 80 81 80 80 83 70 65 63 62 61 63 69 73 76 78 78 78 77 78 78 78 78
81 81 80 79 79 79 78 79 78 78 79 80 79 80 80 80 80 81 81 81 80 80 80 80 82 73 64 62 61 60 62 71 72 75 76 77 78 78 78 78 78 78
81 81 80 80 79 79 79 80 80 80 80 80 80 80 80 81 81 81 82 82 81 81 81 81 81 75 63 60 59 59 65 72 73 74 75 76 77 78 78 77 78 81
81 81 81 81 80 80 80 80 80 80 81 81 81 81 81 82 82 81 82 82 82 82 78 80 82 77 63 60 59 58 64 74 74 74 74 75 76 77 78 78 76 79
81 80 81 81 81 81 81 81 81 82 81 81 81 82 81 82 82 82 81 82 82 82 83 81 82 82 75 60 58 56 59 73 75 74 74 75 76 76 77 76 77 76
MSLP
1016.34 1016.59 1016.86 1017.10 1017.30 1017.39 1017.62 1017.91 1018.03 1018.22 1018.34 1018.42 1018.66 1018.66 1018.66 1018.59 1018.66 1018.83 1018.95 1019.10 1019.18 1019.30 1019.39 1019.51 1019.59 1019.66 1019.66 1019.83 1019.98 1020.18 1020.39 1020.54 1020.59 1020.51 1020.62 1020.74 1020.91 1020.95 1021.07 1020.98 1021.03 1021.10
1016.03 1016.22 1016.42 1016.66 1016.98 1017.10 1017.27 1017.34 1017.62 1017.83 1018.03 1018.10 1018.15 1018.18 1018.22 1018.34 1018.47 1018.59 1018.83 1018.98 1019.07 1019.18 1019.18 1019.34 1019.47 1019.54 1019.62 1019.74 1019.91 1020.22 1020.39 1020.47 1020.62 1020.39 1020.66 1020.78 1020.78 1020.83 1020.91 1020.86 1020.91 1020.86
1015.71 1016.07 1016.30 1016.54 1016.66 1016.83 1016.91 1017.03 1017.27 1017.47 1017.66 1017.74 1017.78 1017.95 1018.10 1018.07 1018.30 1018.42 1018.59 1018.78 1018.98 1019.07 1019.15 1019.18 1019.34 1019.42 1019.47 1019.59 1019.74 1020.03 1020.27 1020.42 1020.54 1020.42 1020.54 1020.66 1020.66 1020.83 1020.78 1020.74 1020.83 1020.86
1015.39 1015.59 1015.86 1016.03 1016.18 1016.42 1016.54 1016.91 1017.10 1017.27 1017.42 1017.74 1017.86 1017.71 1017.78 1017.86 1018.03 1018.30 1018.47 1018.62 1018.86 1018.98 1019.03 1019.15 1019.22 1019.30 1019.39 1019.51 1019.71 1019.95 1020.07 1020.18 1020.15 1020.27 1020.51 1020.47 1020.54 1020.66 1020.74 1020.74 1020.78 1020.78
1014.95 1015.30 1015.54 1015.78 1015.95 1016.10 1016.39 1016.71 1016.91 1017.03 1017.22 1017.22 1017.34 1017.51 1017.71 1017.86 1018.03 1018.18 1018.39 1018.59 1018.71 1018.91 1018.98 1019.07 1019.10 1019.22 1019.27 1019.42 1019.59 1019.95 1020.03 1020.15 1020.15 1020.22 1020.47 1020.59 1020.42 1020.59 1020.62 1020.74 1020.86 1020.95
1014.62 1014.91 1015.27 1015.62 1015.86 1016.15 1016.39 1016.51 1016.54 1016.74 1016.86 1017.10 1017.15 1017.22 1017.42 1017.54 1017.78 1017.95 1018.10 1018.42 1018.59 1018.74 1018.91 1018.98 1019.10 1019.10 1019.18 1019.30 1019.54 1019.74 1019.86 1020.10 1020.10 1020.22 1020.42 1020.54 1020.51 1020.47 1020.54 1020.66 1020.83 1020.98
1014.47 1014.78 1015.15 1015.39 1015.78 1015.98 1016.27 1016.27 1016.30 1016.39 1016.59 1016.54 1016.78 1017.10 1017.18 1017.51 1017.66 1017.74 1017.86 1018.03 1018.30 1018.54 1018.74 1018.86 1018.98 1019.10 1019.07 1019.22 1019.47 1019.62 1019.71 1019.86 1019.98 1020.15 1020.39 1020.42 1020.47 1020.54 1020.51 1020.62 1020.74 1020.91
1014.10 1014.30 1014.66 1015.10 1015.54 1015.86 1016.10 1016.18 1016.22 1016.27 1016.27 1016.51 1016.78 1016.74 1016.91 1017.18 1017.34 1017.47 1017.62 1017.83 1018.10 1018.30 1018.47 1018.59 1018.71 1018.83 1018.95 1019.15 1019.39 1019.54 1019.66 1019.66 1019.91 1020.07 1020.27 1020.39 1020.47 1020.62 1020.51 1020.54 1020.66 1020.86
1013.78 1014.10 1014.34 1014.74 1015.22 1015.51 1015.83 1015.95 1016.07 1016.15 1016.15 1016.47 1016.54 1016.62 1016.71 1016.86 1017.07 1017.22 1017.39 1017.62 1017.91 1018.07 1018.30 1018.47 1018.54 1018.71 1018.83 1019.03 1019.18 1019.34 1019.51 1019.59 1019.66 1019.86 1020.10 1020.34 1020.51 1020.51 1020.51 1020.51 1020.74 1020.83
1013.62 1013.78 1014.15 1014.47 1014.83 1014.98 1015.34 1015.54 1015.74 1015.95 1016.07 1016.30 1016.39 1016.47 1016.71 1016.71 1016.74 1016.98 1017.18 1017.47 1017.71 1017.86 1018.10 1018.27 1018.47 1018.59 1018.71 1018.83 1018.95 1019.07 1019.27 1019.39 1019.47 1019.62 1019.78 1019.95 1020.10 1020.22 1020.34 1020.51 1020.62 1020.78
1013.30 1013.51 1013.86 1014.15 1014.34 1014.47 1014.74 1014.98 1015.30 1015.59 1015.83 1016.07 1016.22 1016.42 1016.42 1016.62 1016.74 1016.78 1017.07 1017.30 1017.54 1017.66 1017.83 1018.03 1018.10 1018.22 1018.47 1018.62 1018.66 1018.71 1018.86 1019.07 1019.22 1019.42 1019.59 1019.66 1019.78 1019.91 1020.07 1020.27 1020.47 1020.59
1012.98 1013.22 1013.47 1013.66 1013.91 1014.10 1014.22 1014.39 1014.66 1015.03 1015.39 1015.62 1015.86 1016.18 1016.27 1016.34 1016.51 1016.62 1016.74 1016.98 1017.07 1017.18 1017.39 1017.54 1017.66 1017.83 1018.03 1018.18 1018.30 1018.42 1018.62 1018.83 1018.98 1019.18 1019.34 1019.47 1019.54 1019.66 1019.78 1019.91 1020.15 1020.27
1012.62 1012.78 1012.91 1013.18 1013.42 1013.62 1013.83 1014.03 1014.15 1014.34 1014.71 1015.10 1015.30 1015.66 1015.95 1016.15 1016.15 1016.30 1016.34 1016.51 1016.66 1016.83 1017.07 1017.22 1017.42 1017.54 1017.71 1017.83 1017.95 1018.15 1018.34 1018.59 1018.78 1018.95 1019.10 1019.22 1019.30 1019.34 1019.47 1019.59 1019.74 1019.83
1012.03 1012.15 1012.42 1012.62 1012.83 1013.15 1013.42 1013.59 1013.78 1013.95 1014.10 1014.34 1014.74 1015.22 1015.51 1015.71 1015.86 1015.98 1015.98 1016.10 1016.22 1016.42 1016.54 1016.74 1017.03 1017.30 1017.47 1017.54 1017.66 1017.86 1018.10 1018.30 1018.51 1018.71 1018.86 1018.98 1019.03 1019.07 1019.15 1019.27 1019.34 1019.42
1011.51 1011.74 1011.91 1012.22 1012.51 1012.86 1013.15 1013.39 1013.54 1013.74 1013.91 1014.10 1014.39 1014.66 1014.86 1015.07 1015.22 1015.47 1015.78 1015.98 1015.98 1016.10 1016.22 1016.39 1016.66 1016.91 1017.03 1017.22 1017.51 1017.62 1017.74 1017.98 1018.15 1018.30 1018.51 1018.74 1018.83 1018.86 1018.86 1018.98 1019.07 1019.07
1011.15 1011.42 1011.71 1011.98 1012.39 1012.66 1012.86 1013.07 1013.34 1013.54 1013.78 1014.07 1014.22 1014.34 1014.51 1014.66 1014.95 1015.10 1015.34 1015.62 1015.83 1015.86 1015.95 1016.10 1016.27 1016.34 1016.47 1016.66 1016.83 1017.10 1017.42 1017.59 1017.74 1017.98 1018.15 1018.34 1018.54 1018.71 1018.74 1018.71 1018.71 1018.74
1010.95 1011.22 1011.51 1011.86 1011.98 1012.27 1012.51 1012.83 1013.03 1013.22 1013.54 1013.78 1013.98 1014.18 1014.34 1014.47 1014.71 1014.98 1015.10 1015.18 1015.34 1015.51 1015.71 1015.74 1015.78 1015.78 1015.98 1016.27 1016.51 1016.66 1016.91 1017.22 1017.51 1017.66 1017.74 1017.95 1018.18 1018.39 1018.54 1018.51 1018.42 1018.39
1010.59 1010.86 1011.22 1011.39 1011.59 1011.86 1012.07 1012.27 1012.59 1012.95 1013.22 1013.42 1013.71 1013.95 1014.07 1014.27 1014.54 1014.66 1014.74 1014.83 1014.95 1015.07 1015.22 1015.27 1015.30 1015.27 1015.59 1015.86 1016.15 1016.42 1016.59 1016.78 1017.03 1017.34 1017.51 1017.71 1017.83 1017.98 1018.07 1018.10 1018.18 1018.18
1010.22 1010.66 1010.95 1011.18 1011.30 1011.47 1011.66 1011.98 1012.30 1012.62 1012.86 1013.10 1013.30 1013.34 1013.71 1014.10 1014.18 1014.34 1014.51 1014.51 1014.62 1014.83 1014.86 1014.78 1014.83 1014.78 1015.15 1015.47 1015.74 1016.03 1016.30 1016.51 1016.66 1016.86 1017.18 1017.34 1017.42 1017.54 1017.66 1017.74 1017.86 1017.98
1009.86 1010.22 1010.54 1010.71 1010.91 1011.18 1011.47 1011.78 1012.07 1012.27 1012.27 1012.39 1012.66 1013.03 1013.39 1013.54 1013.74 1014.03 1014.10 1014.22 1014.27 1014.39 1014.42 1014.39 1014.39 1014.34 1014.66 1014.95 1015.27 1015.62 1015.95 1016.27 1016.30 1016.47 1016.66 1016.83 1016.95 1017.03 1017.15 1017.30 1017.39 1017.62
1009.51 1009.74 1010.03 1010.22 1010.42 1010.71 1011.03 1011.39 1011.62 1011.83 1012.10 1012.22 1012.39 1012.62 1012.91 1013.18 1013.39 1013.62 1013.66 1013.74 1013.83 1013.86 1014.07 1014.07 1013.83 1013.83 1014.15 1014.42 1014.74 1015.10 1015.47 1015.91 1015.98 1016.07 1016.22 1016.39 1016.39 1016.42 1016.51 1016.59 1016.71 1016.86
1009.07 1009.42 1009.66 1009.91 1010.15 1010.39 1010.71 1010.95 1011.15 1011.39 1011.71 1011.78 1012.03 1012.10 1012.18 1012.39 1012.62 1012.83 1013.07 1013.22 1013.27 1013.42 1013.66 1013.66 1013.27 1013.30 1013.59 1013.91 1014.22 1014.59 1015.07 1015.62 1015.71 1015.86 1015.95 1015.98 1015.98 1015.98 1016.03 1015.98 1016.07 1016.27
1008.62 1008.95 1009.27 1009.51 1009.78 1010.18 1010.42 1010.59 1010.83 1010.98 1011.15 1011.22 1011.71 1011.74 1011.91 1012.03 1012.10 1012.22 1012.30 1012.59 1012.86 1012.98 1013.15 1013.07 1012.91 1012.83 1013.07 1013.34 1013.71 1014.07 1014.86 1015.22 1015.39 1015.54 1015.66 1015.71 1015.62 1015.51 1015.54 1015.59 1015.62 1015.74
1008.18 1008.42 1008.78 1009.07 1009.39 1009.71 1009.83 1010.03 1010.22 1010.42 1010.71 1010.74 1011.18 1011.39 1011.54 1011.42 1011.42 1011.62 1011.66 1011.78 1012.10 1012.30 1012.30 1012.59 1012.42 1012.27 1012.51 1012.78 1013.15 1013.66 1014.15 1014.59 1014.95 1015.22 1015.34 1015.39 1015.30 1015.15 1015.10 1015.18 1015.22 1015.27
1007.98 1008.15 1008.34 1008.62 1008.91 1009.07 1009.27 1009.59 1009.74 1009.91 1009.98 1010.18 1010.47 1010.66 1010.78 1010.83 1011.03 1011.27 1011.30 1011.27 1011.27 1011.42 1011.54 1011.86 1011.86 1011.78 1011.95 1012.27 1012.62 1013.15 1013.71 1013.95 1014.30 1014.74 1015.10 1015.07 1015.07 1015.03 1014.83 1014.91 1014.98 1014.98
1007.54 1007.83 1007.95 1008.10 1008.27 1008.42 1008.62 1008.86 1009.03 1009.34 1009.59 1009.74 1009.91 1010.07 1010.30 1010.39 1010.51 1010.71 1010.95 1010.91 1010.74 1010.91 1011.03 1011.10 1011.34 1011.30 1011.34 1011.71 1012.07 1012.59 1012.98 1013.27 1013.66 1014.30 1014.66 1014.59 1014.62 1014.71 1014.83 1014.74 1014.71 1014.78
Wind_Speed
10 9 10 9 9 8 8 8 7 8 8 7 8 8 8 8 6 6 7 6 6 7 6 6 5 5 5 4 4 4 4 4 5 5 5 5 5 4 4 4 3 4
12 11 9 9 7 6 7 8 8 9 9 8 8 7 7 6 7 6 7 7 6 7 6 6 6 6 5 5 4 4 4 3 5 3 5 5 5 3 5 4 4 3
11 10 10 10 11 11 10 9 8 9 8 9 8 6 7 6 7 6 6 7 7 7 7 6 6 6 6 5 4 4 4 4 5 4 4 6 5 4 4 4 3 4
12 13 12 12 11 11 10 8 8 8 7 7 8 8 7 7 7 7 6 6 6 6 6 5 6 6 5 5 4 5 4 5 5 4 5 4 4 4 4 3 4 4
14 13 11 10 10 9 8 9 10 9 10 10 9 7 7 6 6 7 7 6 6 6 5 6 5 6 5 5 5 5 4 5 3 3 4 5 5 4 4 3 4 5
12 11 11 10 10 8 9 10 10 10 10 9 10 8 8 8 7 8 8 8 7 7 7 6 6 6 6 6 5 6 5 5 4 4 4 5 4 3 3 3 4 5
13 12 12 10 9 8 9 10 9 9 10 10 7 8 8 8 8 8 8 9 8 8 8 7 7 7 6 5 5 6 6 5 4 4 5 5 4 4 3 3 4 4
14 12 12 11 11 10 9 9 9 9 9 7 8 9 8 9 9 8 8 8 8 8 8 8 7 7 7 6 6 7 6 4 5 5 5 5 4 5 5 4 3 4
13 12 12 13 13 11 11 10 9 8 7 8 9 8 7 9 9 9 8 8 8 7 7 7 7 7 6 6 7 8 8 7 6 5 6 6 6 7 6 4 4 5
13 12 13 13 14 13 13 11 10 8 6 7 8 7 8 8 8 9 8 8 8 8 7 7 7 7 6 7 8 8 8 8 7 6 6 6 7 6 5 5 6 5
14 13 14 14 15 13 14 13 12 10 8 8 8 8 7 7 7 6 7 7 8 9 8 8 8 8 8 8 8 8 8 8 7 6 6 7 7 6 5 5 5 6
15 14 15 15 15 14 15 14 13 12 10 9 9 10 8 8 8 8 8 9 9 9 9 9 8 8 9 9 9 8 7 7 6 6 6 6 6 6 5 5 6 7
15 15 14 14 14 14 13 13 14 14 13 12 10 11 10 10 9 9 9 9 9 9 9 9 8 8 8 9 9 8 8 8 7 7 7 6 6 7 6 6 6 7
15 15 14 14 13 13 13 13 13 13 13 13 11 11 11 11 11 11 10 9 10 9 9 8 8 7 7 8 8 8 8 8 8 8 8 7 7 7 6 7 7 7
14 13 13 13 13 13 13 13 13 12 12 11 11 11 10 11 11 11 10 10 9 10 9 9 9 9 8 8 8 9 8 9 9 9 9 8 7 7 7 7 6 7
14 12 12 12 12 13 13 13 12 12 11 11 11 12 11 11 10 11 11 11 10 10 9 9 9 8 10 15 13 9 9 9 8 8 8 8 8 7 7 7 8 7
12 13 12 13 13 13 12 12 13 12 11 11 11 11 11 11 10 11 11 11 11 11 11 10 9 9 14 15 16 16 11 9 9 9 8 8 8 8 9 8 8 7
13 13 13 14 13 14 14 13 12 12 12 12 11 11 11 9 11 11 11 11 10 11 11 11 10 12 15 15 16 17 15 11 9 8 8 8 8 9 8 8 8 8
12 13 13 13 13 13 13 12 12 13 13 12 13 12 9 10 12 11 11 11 11 11 11 11 10 13 15 16 16 17 17 14 9 8 9 8 8 9 9 8 8 7
13 13 14 14 13 12 12 12 13 14 14 13 11 10 11 12 11 12 11 11 12 12 11 10 11 13 16 17 17 17 17 15 10 10 9 9 9 9 9 9 9 8
13 14 14 14 14 13 13 13 14 13 12 12 11 12 12 12 12 12 11 11 12 12 11 11 11 15 15 17 17 18 18 15 11 10 9 9 10 9 10 10 10 9
13 13 13 13 13 13 14 14 14 14 14 12 11 11 11 10 10 11 12 13 12 12 12 13 12 16 16 17 18 18 17 11 10 11 11 10 10 10 10 10 10 10
12 13 13 13 13 13 14 14 14 13 12 10 11 12 12 12 12 12 11 12 12 12 13 13 12 14 17 18 18 18 13 9 9 9 10 11 11 11 10 10 10 9
12 13 13 13 12 14 15 13 12 10 11 11 12 12 13 13 12 12 12 12 13 14 14 14 13 14 17 18 19 18 16 11 9 9 10 11 11 11 9 9 10 15
9 11 12 12 13 13 12 13 13 13 11 11 12 12 12 11 11 11 11 11 13 14 16 16 14 14 17 18 19 19 16 10 10 9 10 10 10 11 10 9 8 11
9 10 11 12 13 13 12 12 11 11 12 12 12 12 12 11 11 11 13 12 12 13 13 14 14 13 13 19 19 19 21 13 9 9 11 12 10 10 9 9 9 8
Wind_Direction
192 191 196 196 195 194 189 191 194 193 198 196 198 205 205 208 199 197 200 201 206 208 208 208 207 215 223 216 211 211 216 216 223 222 221 225 236 234 241 247 239 224
197 196 199 199 198 193 194 193 193 195 198 200 205 205 208 200 207 198 198 200 205 212 209 208 208 212 221 220 209 204 217 213 228 214 218 225 235 229 243 246 250 256
195 197 200 201 201 197 195 193 192 198 199 204 205 204 206 205 205 203 202 199 202 210 209 210 210 213 218 224 215 211 209 208 226 222 212 224 229 224 239 248 256 253
197 199 202 207 206 202 196 188 193 198 202 200 206 206 203 205 202 203 204 203 202 208 211 209 214 215 217 225 217 218 215 213 220 207 216 228 228 224 240 237 253 269
196 198 203 210 213 209 198 195 196 196 198 204 204 204 202 203 201 204 200 203 200 206 205 213 216 220 218 225 219 222 216 215 211 190 206 224 233 219 237 226 246 257
199 198 200 205 211 207 205 205 203 196 200 200 205 198 203 202 202 204 202 201 201 200 205 209 213 221 217 223 222 226 219 213 209 187 200 219 237 227 229 219 230 247
196 194 198 201 208 212 214 215 210 203 201 204 193 200 197 200 205 207 205 205 201 198 202 205 209 216 217 219 221 230 229 220 206 199 210 228 228 248 242 227 230 241
198 195 196 196 202 208 218 221 218 211 206 198 196 205 194 200 205 208 207 207 204 203 203 206 209 211 212 208 220 228 233 218 219 211 219 228 220 240 244 239 233 241
197 197 195 197 200 204 213 219 222 222 210 202 205 203 199 202 204 205 206 205 207 206 203 207 210 213 208 207 219 221 225 225 216 213 219 224 223 232 236 241 250 246
199 199 197 199 202 204 209 214 216 220 213 213 213 206 200 207 205 206 206 204 207 208 202 204 208 212 207 209 217 218 223 226 221 215 218 222 226 230 230 223 235 249
201 198 200 202 205 205 207 207 210 214 213 216 215 215 210 203 210 205 206 204 208 210 207 204 206 206 206 211 217 218 222 226 224 220 221 223 225 228 225 219 228 235
201 200 202 204 206 208 209 207 206 207 210 213 213 219 217 212 209 208 206 210 213 214 211 210 207 206 207 210 214 217 220 225 225 222 224 224 227 228 225 217 222 232
202 203 203 204 205 209 210 211 210 208 206 210 207 214 216 217 217 215 215 214 218 216 217 213 211 210 211 212 214 213 214 217 222 220 222 221 225 227 225 222 224 229
204 202 204 205 205 206 209 213 214 213 210 208 205 209 214 216 217 216 218 216 220 220 221 216 212 211 213 215 215 212 210 215 216 220 222 224 227 225 222 223 226 232
203 204 204 205 205 206 209 212 215 217 216 213 208 210 213 215 217 217 217 217 220 221 223 219 215 214 210 210 213 213 209 213 214 216 220 225 229 229 225 223 227 232
202 202 203 203 205 207 210 211 214 215 215 216 215 214 214 213 216 217 217 217 218 220 220 220 221 217 213 208 207 209 209 214 215 217 220 223 227 232 234 227 229 230
201 202 200 203 205 208 208 209 212 212 214 215 216 216 216 215 215 217 219 219 219 218 218 221 223 221 212 206 207 209 208 212 213 218 216 220 223 227 234 233 234 232
202 201 202 204 204 206 206 208 208 209 212 213 214 215 215 214 218 220 220 221 221 221 221 221 224 221 210 207 205 207 209 212 215 218 217 218 222 226 232 235 237 237
201 201 204 207 207 207 207 206 206 208 210 211 213 213 209 211 218 219 222 222 223 223 224 223 227 219 211 208 205 204 207 211 218 215 216 219 220 223 228 232 235 238
200 201 204 207 206 207 207 207 208 211 210 210 210 207 210 214 214 217 220 221 222 224 226 227 225 221 209 208 207 204 203 203 219 216 217 221 221 221 224 228 228 229
203 203 206 205 204 204 205 208 210 213 211 210 208 208 210 212 212 215 218 219 222 222 226 228 228 218 208 207 208 204 202 197 213 217 219 222 224 223 224 226 227 224
204 206 208 207 206 206 207 209 208 207 208 206 208 211 212 211 213 214 215 217 219 220 223 229 230 215 207 206 206 206 197 194 206 214 219 223 225 224 225 227 227 225
206 206 208 208 206 207 211 212 210 209 210 203 208 211 210 210 212 212 214 216 217 217 221 227 230 216 205 205 205 202 185 199 202 211 219 224 229 226 225 226 226 224
213 211 210 208 206 210 211 212 211 211 210 203 209 210 214 214 211 213 212 212 213 216 217 222 228 218 203 204 203 194 186 195 200 205 218 222 230 231 228 226 224 220
229 222 218 212 210 212 210 209 207 207 205 204 210 212 217 214 214 217 216 214 215 217 216 218 226 222 205 203 200 192 189 200 197 203 216 224 226 234 231 228 227 224
224 227 223 218 216 213 209 209 205 204 204 205 207 210 213 213 214 214 217 218 215 215 217 216 222 224 209 202 198 192 190 194 198 198 216 223 224 227 235 231 226 227